Location: Gerlach
(40.6516°N, 119.3568°W)
Time: 22:37:45
(UTC-08:00)

Altair - Visible Passes

Search period start: 05 February 2023 00:00
Search period end: 15 February 2023 00:00
Orbit: 1501 x 1683 km, 47.2° (Epoch: 05 February)

Date Brightness Start Highest point End Pass type
(mag) Time Alt. Az. Time Alt. Az. Time Alt. Az.
05 Feb 7.8 17:45:02 10° SW 17:54:13 57° SE 18:03:48 10° ENE visible
05 Feb 7.6 19:49:20 10° WSW 19:59:00 71° NNW 20:02:06 49° NE visible
05 Feb 8.7 21:55:10 10° WNW 22:00:08 33° WNW 22:00:08 33° WNW visible
06 Feb 7.6 19:24:05 10° WSW 19:33:44 73° NNW 19:38:26 37° ENE visible
06 Feb 8.3 21:29:55 10° WNW 21:36:27 44° NW 21:36:27 44° NW visible
07 Feb 7.6 18:58:51 10° WSW 19:08:28 76° NNW 19:14:43 27° ENE visible
07 Feb 8.0 21:04:38 10° WNW 21:12:45 55° NNW 21:12:45 55° NNW visible
07 Feb 9.7 23:09:59 10° WNW 23:10:46 13° WNW 23:10:46 13° WNW visible
08 Feb 7.6 18:33:38 10° WSW 18:43:13 79° NNW 18:51:00 19° ENE visible
08 Feb 7.8 20:39:22 10° WNW 20:49:01 60° N 20:49:01 60° N visible
08 Feb 9.3 22:44:46 10° WNW 22:47:02 20° WNW 22:47:02 20° WNW visible
09 Feb 7.6 18:08:26 10° WSW 18:17:59 82° NNW 18:27:15 13° ENE visible
09 Feb 7.7 20:14:05 10° W 20:23:42 59° N 20:25:16 54° NNE visible
09 Feb 9.0 22:19:32 10° WNW 22:23:17 27° WNW 22:23:17 27° WNW visible
10 Feb 7.7 17:43:14 10° WSW 17:52:45 86° NNW 18:02:42 10° ENE visible
10 Feb 7.8 19:48:49 10° W 19:58:23 60° N 20:01:30 44° NE visible
10 Feb 8.6 21:54:19 10° WNW 21:59:32 37° WNW 21:59:32 37° WNW visible
11 Feb 7.8 19:23:34 10° W 19:33:05 60° N 19:37:45 34° ENE visible
11 Feb 8.2 21:29:06 10° WNW 21:35:46 48° NW 21:35:46 48° NW visible
12 Feb 7.8 18:58:17 10° W 19:07:47 60° N 19:13:58 25° ENE visible
12 Feb 7.8 21:03:52 10° WNW 21:11:59 61° NNW 21:11:59 61° NNW visible
12 Feb 9.6 23:08:53 10° WNW 23:10:01 14° WNW 23:10:01 14° WNW visible
13 Feb 7.8 18:33:01 10° W 18:42:28 61° N 18:50:12 18° ENE visible
13 Feb 7.6 20:38:39 10° WNW 20:48:14 69° N 20:48:14 69° N visible
13 Feb 9.3 22:43:40 10° WNW 22:46:15 21° WNW 22:46:15 21° WNW visible
14 Feb 7.8 18:07:45 10° W 18:17:11 62° N 18:26:27 12° ENE visible
14 Feb 7.5 20:13:25 10° WNW 20:23:08 67° NNE 20:24:28 61° NE visible
14 Feb 8.9 22:18:26 10° WNW 22:22:29 29° WNW 22:22:29 29° WNW visible
